Weather History for Sheridan, WY

Change the Weather History Date:

Wednesday, January 2, 2013

  Actual Average Record
Temperature  
Mean Temperature 19 °F 23 °F  
Max Temperature 30 °F 35 °F 65 °F (1939)
Min Temperature 8 °F 10 °F -28 °F (1912)
Degree Days  
Heating Degree Days 46 42  
Month to date heating degree days 89 84  
Since 1 July heating degree days 3044 3267  
Cooling Degree Days 0 0  
Month to date cooling degree days 0 0  
Year to date cooling degree days 0 0  
Moisture  
Dew Point 10 °F    
Average Humidity 61    
Maximum Humidity 76    
Minimum Humidity 46    
Precipitation  
Precipitation T in 0.01 in 0.82 in (1972)
Month to date precipitation T 0.03  
Year to date precipitation T 0.03  
Sea Level Pressure  
Sea Level Pressure 30.34 in    
Wind  
Wind Speed 13 mph (NW)    
Max Wind Speed 29 mph    
Max Gust Speed 36 mph    
Visibility 10 miles    
Events      
T = Trace of Precipitation, MM = Missing Value Source: NWS Daily Summary

Daily Weather History Graph

Daily Weather History Graph

Search for Another Location

Airport:

Trip Planner

Search our weather history database for the weather conditions in past years. The results will help you decide how hot, cold, wet, or windy it might be!

Date:

Astronomy

Jan. 02, 2013 Rise Set
Actual Time 7:45 AM MST 4:39 PM MST
Civil Twilight 7:11 AM MST 5:12 PM MST
Nautical Twilight 6:35 AM MST 5:49 PM MST
Astronomical Twilight 5:59 AM MST 6:24 PM MST
Moon 10:29 PM MST (1/2) 10:14 AM MST (1/2)
Length of Visible Light 10h 00m
Length of Day
8h 53m
Waning Gibbous, 74% of the Moon is Illuminated
Jan 2
Waning Gibbous
Jan 4
Last Quarter
Jan 11
New
Jan 18
First Quarter
Jan 26
Full

Hourly Weather History & Observations

Time (MST) Temp. Windchill Dew Point Humidity Pressure Visibility Wind Dir Wind Speed Gust Speed Precip Events Conditions
12:21 AM 26.6 °F 15.2 °F 17.6 °F 69% 30.16 in 10.0 mi NW 13.8 mph - 0.00 in   Overcast
12:53 AM 28.0 °F 15.3 °F 16.0 °F 61% 30.25 in 10.0 mi WNW 18.4 mph - 0.00 in   Overcast
1:53 AM 27.0 °F 14.7 °F 15.1 °F 61% 30.25 in 10.0 mi NW 16.1 mph 23.0 mph N/A   Overcast
2:53 AM 27.0 °F 13.9 °F 16.0 °F 63% 30.27 in 10.0 mi NW 18.4 mph - N/A   Overcast
3:53 AM 28.9 °F 19.8 °F 15.1 °F 56% 30.27 in 10.0 mi WNW 10.4 mph - N/A   Overcast
4:53 AM 26.1 °F 14.5 °F 15.1 °F 63% 30.29 in 10.0 mi NNW 13.8 mph - N/A   Overcast
5:53 AM 21.9 °F 10.4 °F 12.9 °F 68% 30.30 in 10.0 mi NW 11.5 mph - N/A   Scattered Clouds
6:53 AM 21.0 °F 8.1 °F 9.0 °F 60% 30.31 in 10.0 mi NNW 13.8 mph - N/A   Clear
7:53 AM 19.9 °F 7.3 °F 9.0 °F 62% 30.32 in 10.0 mi NW 12.7 mph - N/A   Mostly Cloudy
8:53 AM 19.9 °F 10.1 °F 8.1 °F 60% 30.31 in 10.0 mi West 8.1 mph - N/A   Overcast
9:53 AM 23.0 °F 13.1 °F 8.1 °F 53% 30.31 in 10.0 mi WNW 9.2 mph - N/A   Scattered Clouds
10:53 AM 28.9 °F 18.2 °F 10.9 °F 47% 30.30 in 10.0 mi NNW 13.8 mph - N/A   Clear
11:53 AM 28.0 °F 12.5 °F 12.9 °F 53% 30.30 in 9.0 mi NW 28.8 mph 34.5 mph N/A   Clear
12:53 PM 28.0 °F 13.0 °F 14.0 °F 56% 30.31 in 10.0 mi NW 26.5 mph - N/A   Clear
1:53 PM 28.0 °F 13.3 °F 14.0 °F 56% 30.31 in 10.0 mi NNW 25.3 mph 32.2 mph N/A   Clear
2:53 PM 28.0 °F 15.7 °F 12.9 °F 53% 30.32 in 10.0 mi NNW 17.3 mph 26.5 mph N/A   Clear
3:53 PM 26.1 °F 13.6 °F 12.9 °F 58% 30.34 in 10.0 mi NW 16.1 mph - N/A   Clear
4:53 PM 21.0 °F 9.3 °F 10.9 °F 65% 30.39 in 10.0 mi NNW 11.5 mph - N/A   Clear
5:53 PM 17.1 °F 4.3 °F 9.0 °F 71% 30.43 in 10.0 mi NNW 11.5 mph - N/A   Clear
6:53 PM 10.9 °F 1.4 °F 5.0 °F 77% 30.46 in 10.0 mi West 5.8 mph - N/A   Unknown
7:53 PM 14.0 °F 3.9 °F 6.1 °F 71% 30.45 in 10.0 mi NW 6.9 mph - N/A   Clear
8:53 PM 10.0 °F - 3.0 °F 73% 30.48 in 10.0 mi Calm Calm - N/A   Clear
9:53 PM 12.9 °F 6.9 °F 3.0 °F 65% 30.45 in 10.0 mi SE 3.5 mph - N/A   Clear
10:53 PM 12.0 °F - 1.0 °F 61% 30.44 in 10.0 mi Calm Calm - N/A   Clear
11:53 PM 10.0 °F - -0.0 °F 64% 30.46 in 10.0 mi Calm Calm - N/A   Clear